Tracking 27112 objects as of 27-Mar-2023
HD Live streaming from Space Station
objects crossing your sky now

STARLINK-3297

Track STARLINK-3297 now!
10-day predictions
STARLINK-3297 is classified as:


NORAD ID: 50159
Int'l Code: 2021-125D
Perigee: 545.6 km
Apogee: 548.1 km
Inclination: 53.2 °
Period: 95.4 minutes
Semi major axis: 6917 km
RCS: Unknown
Launch date: December 18, 2021
Source: United States (US)
Launch site: AIR FORCE WESTERN TEST RANGE (AFWTR)
Your satellite tracking list
Your tracking list is empty




NASA's NSSDC Master Catalog

Two Line Element Set (TLE):
1 50159U 21125D   23085.64464542  .00015114  00000-0  96563-3 0  9998
2 50159  53.2177  63.1520 0001802 101.1769 258.9426 15.08841830 73554
Source of the keplerian elements: AFSPC